DELTA 1 DEB, 7038

Orbit data source: Space-Track

DELTA 1 DEB, 7038 is space debris in SSO originally from a launch on Tue, 06 Nov 1973 UTC launched from the Air Force Western Test Range (AFWTR). Debris objects in space refer to the collection of defunct objects orbiting the Earth. Examples of debris include non-operational satellites, rocket bodies, and fragments generated from explosions, collisions, or faulty payload assembly.

Loading next visibility...
Identifier
7038, 1973-086AE
Orbit
SSO
Country
Flag of USUS
Related business
Manufacturer
Unknown
Mission
Spacecraft
Bus & Motor
Unknown
Mass
Unknown
Launch date (UTC)
1973-11-06 (52 years ago)
Launch vehicle
Unknown
Launch site
Air Force Western Test Range (AFWTR)
Object type
Payload
Rocket body
Debris
Shape & HBR
Unknown shape, 0.2 m
Radar Cross Section
Medium (>0.1 m² and <1 m²)

Expand to show TLE details & history
Last TLE update: 11 hours ago

TLE from 11 hours ago
0 DELTA 1 DEB
1 07038U 73086AE  26034.46221075  .00000047  00000-0  79196-3 0  9990
2 07038 101.8917 226.3983 0126774  24.5380   3.8937 12.24415550330149
Epoch: 2026-02-03T11:05Z
TLE epoch observation values (Epoch: 2026-02-03T11:05:35.008Z)
Latitude
27.90676°
Longitude
-80.01222°
Altitude
1,475.89 km
Speed
7.173 km/s
True Right ascension
14h 40m 06s
True Declination
27° 46' 40"
Sunlit
Object was in daylight at epoch
Visualization orbit readout
Latitude
Unknown
Longitude
Unknown
Altitude
Unknown
Speed
Unknown
Apparent Right ascension
Unknown
Apparent Declination
Unknown
Sunlit
N/A
Visualization observer readout
Local Sidereal Time
00:18:40
Azimuth
Unknown
Elevation
Unknown
Doppler factor
Unknown
Orbital elements
Apogee altitude
1,671.729 km
Perigee altitude
1,470.181 km
Semi-major axis
7,949.092 km
Eccentricity
0.01268
Inclination
101.8917°
RAAN
226.3983°
Arg. of periapsis
24.538°
True anomaly
3.99393°
Mean anomaly
3.8937°
Eccentric anomaly
3.94366°
Mean motion
3.06243 °/min
Orbital period
117.55 mins
BSTAR
0.00079196
Loading maneuver chart data...
Computing Atmospheric mass density...
Loading historical data...
Loading historical data...
Loading historical data...
Loading historical data...
Loading historical data...
Loading historical data...
Loading historical data...

Documentation

Showing up to 5 results
|